Home > Weather > Kyiv > Past weeks

Flag for Ukraine Weather for the Past 2 Weeks in Kyiv, Ukraine

Now
34 °F

Passing clouds.


Feels Like: 25 °F
Forecast: 31 / 41 °F
Wind: 13 mph from South

Location: Kyiv

Current Time: Feb 8, 2016 at 9:14:24 PM

Latest Report: Feb 8, 2016 at 8:30 PM


Visibility: N/A

Pressure: 30.12 "Hg

Humidity: 81%

Dew point: 28 °F

Location of KyivLocation

Historic Weather in Kyiv — Graph

°F

Kyiv Temperature Yesterday

Maximum temperature yesterday: 36 °F (at 12:30 PM)
Minimum temperature yesterday: 21 °F (at 12:00 AM)
Average temperature yesterday: 28 °F

High & Low Weather Summary for the Past Weeks

 TemperatureHumidityPressure
High48 °F (Feb 3, 10:30 AM)100% (Jan 25, 9:00 PM)30.48 "Hg (Jan 25, 9:00 PM)
Low1 °F (Jan 24, 8:30 PM)48% (Feb 6, 2:30 PM)29.53 "Hg (Jan 31, 4:30 PM)
Average33 °F83%30.03 "Hg
* Reported Jan 24 8:00 PM — Feb 8 8:00 PM, Kyiv, Weather by CustomWeather, © 2016

Note: Actual official high and low records may vary slightly from our data, if they occured in-between our weather recording intervals... More about our weather records

Advertising

Kyiv Weather History for the Previous 24 Hours

 ConditionsComfort  
Time TempWeatherWind HumidityBarometerVisibility
8:00 PM
Mon, Feb 8
34 °FPassing clouds.10 mph81%30.15 "HgN/A
7:30 PM34 °FPassing clouds.13 mph81%30.15 "Hg5 mi
7:00 PM34 °FPassing clouds.10 mph81%30.15 "Hg6 mi
6:30 PM34 °FPassing clouds.6 mph75%30.15 "HgN/A
6:00 PM34 °FPassing clouds.8 mph81%30.15 "HgN/A
5:30 PM34 °FPassing clouds.10 mph75%30.15 "HgN/A
5:00 PM34 °FScattered clouds.10 mph81%30.15 "HgN/A
4:30 PM36 °FScattered clouds.13 mph70%30.15 "HgN/A
4:00 PM36 °FScattered clouds.13 mph75%30.15 "HgN/A
3:30 PM37 °FScattered clouds.10 mph65%30.15 "HgN/A
3:00 PM37 °FBroken clouds.13 mph70%30.15 "HgN/A
2:30 PM37 °FBroken clouds.13 mph70%30.15 "HgN/A
2:00 PM37 °FBroken clouds.13 mph70%30.15 "HgN/A
1:30 PM37 °FBroken clouds.15 mph70%30.15 "HgN/A
1:00 PM37 °FPartly sunny.17 mph70%30.18 "HgN/A
12:30 PM36 °FPartly sunny.13 mph70%30.18 "HgN/A
12:00 PM36 °FBroken clouds.15 mph70%30.18 "HgN/A
11:30 AM36 °FBroken clouds.13 mph70%30.18 "HgN/A
11:00 AM34 °FBroken clouds.13 mph75%30.18 "HgN/A
10:30 AM34 °FBroken clouds.10 mph75%30.18 "HgN/A
10:00 AM32 °FBroken clouds.13 mph80%30.18 "HgN/A
9:30 AM30 °FBroken clouds.10 mph80%30.18 "HgN/A
9:00 AM30 °FBroken clouds.8 mph80%30.18 "HgN/A
8:30 AM28 °FBroken clouds.10 mph86%30.18 "HgN/A
8:00 AM28 °FBroken clouds.6 mph86%30.18 "HgN/A
7:30 AM28 °FPassing clouds.6 mph86%30.18 "HgN/A
7:00 AM27 °FPassing clouds.6 mph86%30.18 "HgN/A
6:30 AM27 °FPassing clouds.6 mph86%30.18 "HgN/A
6:00 AM27 °FPassing clouds.6 mph86%30.18 "HgN/A
5:30 AM27 °FPassing clouds.6 mph86%30.18 "HgN/A
5:00 AM27 °FPassing clouds.6 mph86%30.18 "HgN/A
4:30 AM27 °FPassing clouds.8 mph86%30.18 "HgN/A
4:00 AM27 °FPassing clouds.6 mph86%30.18 "HgN/A
3:30 AM28 °FPassing clouds.6 mph80%30.21 "HgN/A
3:00 AM28 °FPassing clouds.8 mph80%30.21 "HgN/A
2:30 AM28 °FPassing clouds.8 mph80%30.21 "HgN/A
1:30 AM28 °FPassing clouds.8 mph80%30.21 "HgN/A
1:00 AM28 °FPassing clouds.8 mph86%30.24 "HgN/A
12:30 AM28 °FPassing clouds.8 mph80%30.24 "HgN/A
12:00 AM28 °FPassing clouds.8 mph80%30.24 "HgN/A
11:30 PM
Sun, Feb 7
28 °FPassing clouds.6 mph80%30.24 "HgN/A
11:00 PM28 °FPassing clouds.6 mph80%30.24 "HgN/A
10:30 PM28 °FPassing clouds.6 mph80%30.24 "HgN/A
10:00 PM28 °FPassing clouds.8 mph80%30.24 "HgN/A
9:30 PM30 °FPassing clouds.8 mph75%30.27 "HgN/A
9:00 PM30 °FPassing clouds.8 mph75%30.27 "HgN/A
Weather by CustomWeather, © 2016

See weather overviewHow to use our weather pages